KLEMETTI Weather Reports


time (UTC)temp
C
wind
direction
speed
KPH
gust
KPH
rain 1hr
cm
rain 24hr
cm
rain mn
cm
humidity
%
barometer
mb
20260906092500 10 349 27.4 41.8 0.00 0.10 0.00 63 1010.2
20260906090458 10 348 25.7 38.6 0.00 0.10 0.00 64 1010.1
20260906082459 10 353 27.4 41.8 0.00 0.10 0.00 62 1009.7
20260906074459 10 342 25.7 40.2 0.00 0.13 0.00 63 1009.4
20260906072129 10 344 22.5 41.8 0.00 0.13 0.00 67 1009.2
20260906070128 9 347 22.5 35.4 0.00 0.13 0.00 69 1008.8
20260906064457 9 345 22.5 37.0 0.00 0.13 0.00 68 1008.7
20260906062458 9 337 24.1 33.8 0.00 0.13 0.00 70 1008.3
20260906060455 9 340 24.1 35.4 0.00 0.13 0.00 69 1008.2
20260906054129 9 350 17.7 30.6 0.00 0.15 0.00 70 1007.8
20260906052459 9 347 17.7 32.2 0.00 0.15 0.00 71 1007.6
20260906050459 9 342 17.7 29.0 0.00 0.15 0.00 74 1007.4
20260906044129 8 342 19.3 27.4 0.00 0.20 0.00 76 1007.2
20260906042128 9 340 17.7 27.4 0.00 0.20 0.00 77 1006.9
20260906034128 9 341 17.7 25.7 0.00 0.20 0.00 75 1006.4
20260906030459 8 340 14.5 20.9 0.00 0.20 0.00 78 1006.2
20260906024458 8 335 17.7 22.5 0.00 0.20 0.00 76 1006.0
20260906022459 8 333 19.3 24.1 0.00 0.20 0.00 73 1005.8
20260906012128 9 341 19.3 27.4 0.00 0.20 0.00 75 1005.3
20260906010459 9 340 20.9 30.6 0.00 0.20 0.00 75 1005.1
20260906004459 9 336 19.3 27.4 0.00 0.23 0.00 74 1004.9
20260906002458 9 337 17.7 24.1 0.00 0.23 0.00 76 1004.8
20260906000456 10 334 19.3 24.1 0.00 0.23 0.00 79 1004.5
20260905234457 10 337 16.1 22.5 0.00 0.23 0.00 81 1004.4
20260905232456 10 332 12.9 17.7 0.00 0.23 0.00 82 1004.4
20260905230457 9 338 14.5 17.7 0.00 0.23 0.00 82 1004.2
20260905224456 9 343 14.5 17.7 0.00 0.23 0.00 86 1004.1
20260905222457 7 333 14.5 19.3 0.00 0.23 0.00 98 1004.0
20260905220458 7 344 11.3 14.5 0.00 0.23 0.00 97 1003.9
20260905214457 7 346 6.4 11.3 0.00 0.23 0.00 95 1003.8
20260905212127 8 344 9.7 14.5 0.00 0.23 0.00 92 1003.6
20260905210126 8 355 11.3 16.1 0.00 0.23 0.00 88 1003.6
20260905204456 10 340 14.5 24.1 0.00 0.23 0.23 85 1003.4
20260905202457 10 349 14.5 17.7 0.00 0.23 0.23 83 1003.1
20260905200458 10 353 14.5 20.9 0.00 0.23 0.23 84 1003.0
20260905194454 10 353 14.5 22.5 0.00 0.23 0.23 83 1002.7
20260905190455 10 345 14.5 22.5 0.00 0.23 0.23 82 1002.8
20260905184457 10 355 16.1 30.6 0.00 0.23 0.23 83 1002.6
20260905182456 10 357 14.5 24.1 0.00 0.23 0.23 82 1002.4
20260905180454 10 14 16.1 25.7 0.00 0.23 0.23 81 1002.2
20260905174453 10 17 16.1 29.0 0.00 0.23 0.23 82 1001.9
20260905172454 10 17 14.5 24.1 0.00 0.23 0.23 81 1001.8
20260905164457 11 6 17.7 27.4 0.00 0.23 0.23 77 1001.4
20260905162127 11 12 17.7 27.4 0.00 0.23 0.23 77 1001.2
20260905160455 11 18 22.5 38.6 0.00 0.23 0.23 74 1000.9
20260905154454 12 5 22.5 41.8 0.00 0.23 0.23 71 1000.8
20260905152456 12 13 24.1 41.8 0.00 0.23 0.23 75 1000.8
20260905150125 11 8 20.9 40.2 0.03 0.23 0.23 78 1000.5
20260905144455 11 10 20.9 35.4 0.03 0.23 0.23 80 1000.5
20260905140126 11 11 16.1 24.1 0.00 0.20 0.20 91 999.9
20260905130128 13 21 17.7 33.8 0.03 0.20 0.18 83 999.4
20260905124454 12 5 25.7 41.8 0.03 0.20 0.18 83 999.2
20260905122454 12 8 20.9 37.0 0.03 0.20 0.18 85 999.1
20260905120455 13 14 17.7 33.8 0.03 0.20 0.18 82 998.8
20260905114455 12 14 22.5 32.2 0.03 0.18 0.18 92 998.7
20260905112456 12 10 22.5 35.4 0.03 0.18 0.18 85 998.6
20260905110454 12 356 22.5 38.6 0.03 0.18 0.15 87 998.1
20260905104456 12 359 22.5 41.8 0.03 0.18 0.15 86 998.0
20260905102455 12 8 22.5 37.0 0.03 0.18 0.15 88 997.7
20260905100454 11 8 22.5 40.2 0.03 0.18 0.15 95 997.5
20260905094454 11 356 24.1 45.1 0.00 0.15 0.13 94 997.3